CAPE
0 0 40 9 0 0 0 0 0 0 0 0 0 0 0 0 0 0 0 0 0 0 0 0 0 0 0 0 0 0 0 0 0 0 0 3 173 498 478 390 453 471 744
0 5 46 3 0 0 0 0 0 0 0 0 0 0 0 0 0 0 0 0 0 0 0 0 0 0 0 0 0 0 0 0 0 0 0 0 0 48 586 573 566 572 439
0 0 25 0 0 0 0 0 0 0 0 0 0 0 0 0 0 0 0 0 0 0 0 0 0 0 0 0 0 0 0 0 0 0 0 0 0 0 0 786 674 436 430
0 9 0 0 0 0 0 0 0 0 0 0 0 0 0 0 0 0 0 0 0 0 0 0 0 0 0 0 0 0 0 0 0 0 0 0 0 0 0 0 834 639 287
0 50 0 0 0 0 0 0 0 0 0 0 0 0 0 0 0 0 0 0 0 0 0 0 0 0 0 0 0 25 0 0 0 3 0 0 0 0 0 13 744 660 464
12 20 0 0 0 0 0 0 0 0 0 0 0 0 0 0 0 0 0 0 0 0 0 0 0 0 0 0 0 194 431 258 136 35 0 0 0 2 105 335 274 737 689
19 12 0 0 0 0 0 0 0 0 0 0 0 0 0 0 0 0 0 1 4 7 44 98 151 212 294 361 373 359 298 385 469 193 104 17 10 31 248 346 111 495 673
24 22 0 2 0 0 0 0 0 0 0 0 0 0 0 0 0 0 5 23 46 72 103 166 254 367 425 440 507 465 519 535 496 339 210 69 14 74 505 830 583 407 611
1 0 0 1 0 1 0 0 0 0 0 0 0 0 0 0 0 0 13 45 84 150 226 383 574 688 459 391 418 472 546 595 582 429 172 12 4 110 631 841 503 409 333
0 0 0 1 0 0 1 0 0 0 0 0 0 0 0 0 0 0 25 87 196 313 428 580 609 504 349 338 346 377 364 386 537 492 382 191 26 125 603 748 384 289 280
49 25 5 0 26 12 3 66 55 19 17 8 2 3 1 17 14 27 96 69 194 409 622 729 594 384 238 202 189 190 250 283 336 419 421 371 312 175 394 794 617 220 122
58 85 35 14 13 26 22 8 68 50 62 74 61 65 56 32 22 37 115 108 119 395 649 654 573 406 260 108 13 7 144 235 323 347 302 338 523 481 356 514 570 252 203
4 61 79 65 30 7 1 0 3 23 8 83 65 73 130 81 82 162 63 152 143 398 625 811 706 479 222 82 1 3 0 14 119 189 224 339 424 448 499 383 529 479 342
0 0 83 123 104 52 25 1 1 11 14 32 57 98 60 60 34 82 17 20 62 282 522 596 456 383 197 101 29 8 37 3 18 77 131 337 399 542 570 420 599 516 397
0 0 0 26 55 53 40 3 0 0 7 15 67 122 108 86 0 30 20 6 17 127 389 516 466 299 163 68 48 81 50 89 117 154 165 281 261 295 687 592 806 531 541
0 0 0 0 2 71 50 22 5 0 23 35 46 119 177 120 2 0 0 13 4 66 320 381 347 241 145 78 107 99 113 77 158 124 168 205 168 225 468 502 683 812 538
0 0 0 0 0 12 19 31 16 2 31 40 73 180 121 148 6 0 0 0 5 64 238 205 204 168 175 124 206 184 122 80 85 0 17 16 52 221 158 186 181 421 355
0 0 0 0 0 0 10 72 48 10 53 69 101 211 223 209 43 0 0 0 0 63 273 209 220 255 219 256 303 241 167 117 96 47 39 21 16 69 140 238 205 176 373
0 0 0 0 0 0 7 127 184 103 109 133 203 287 333 265 132 31 4 0 4 212 250 241 282 257 298 324 372 308 182 140 76 62 48 33 19 65 164 264 183 138 188
0 0 0 0 0 0 1 147 256 269 290 222 243 352 351 333 232 143 52 58 78 402 322 320 348 261 323 339 165 54 53 73 84 81 46 24 4 42 87 112 198 149 96
0 0 0 0 0 0 0 51 212 314 405 446 415 390 419 370 284 169 147 75 290 401 417 369 341 395 273 5 0 0 0 7 43 56 25 23 4 30 41 37 44 28 24
0 0 0 0 0 0 10 153 316 391 393 473 526 580 563 475 297 226 132 170 375 357 380 352 324 233 39 0 0 0 0 0 0 21 39 33 29 18 42 33 41 30 34
0 0 0 0 0 0 97 266 304 348 332 480 645 724 686 534 429 392 375 378 390 359 386 323 216 59 0 0 0 0 0 0 0 0 52 67 51 32 32 20 28 50 60
0 0 0 0 0 0 120 293 349 319 330 523 681 741 726 587 559 469 446 467 367 331 362 182 1 0 0 0 0 0 0 0 0 0 17 13 17 6 5 9 24 38 49
0 0 0 0 0 0 120 280 386 470 402 454 626 728 700 555 584 531 456 296 365 241 54 0 0 0 0 0 0 0 0 0 13 32 11 0 1 0 0 0 18 30 34
1 10 10 0 0 89 313 399 469 533 456 612 692 762 426 290 348 326 320 291 97 0 0 0 0 0 0 0 0 0 0 0 22 22 20 14 7 7 4 2 11 16 36
CIN
-0 -0 -673 -512 -0 -0 -0 -0 -0 -0 -0 -0 -0 -0 -0 -0 -0 -0 -0 -0 -0 -0 -0 -0 -0 -0 -0 -0 -0 -0 -0 -0 -0 -0 -0 -38 -65 -29 -22 -29 -23 -5 -4
-0 -572 -697 -495 -0 -0 -0 -0 -0 -0 -0 -0 -0 -0 -0 -0 -0 -0 -0 -0 -0 -0 -0 -0 -0 -0 -0 -0 -0 -0 -0 -0 -0 -0 -0 -0 -0 -129 -21 -15 -10 -6 -9
-0 -0 -726 -0 -0 -0 -0 -0 -0 -0 -0 -0 -0 -0 -0 -0 -0 -0 -0 -0 -0 -0 -0 -0 -0 -0 -0 -0 -0 -0 -0 -0 -0 -0 -0 -0 -0 -0 -0 -3 -6 -26 -17
-0 -416 -0 -0 -0 -0 -0 -0 -0 -0 -0 -0 -0 -0 -0 -0 -0 -0 -0 -0 -0 -0 -0 -0 -0 -0 -0 -0 -0 -0 -0 -0 -0 -0 -0 -0 -0 -0 -0 -0 -2 -16 -43
-196 -675 -0 -0 -0 -0 -0 -0 -0 -0 -0 -0 -0 -0 -0 -0 -0 -0 -0 -0 -0 -0 -0 -0 -0 -0 -0 -0 -0 -30 -0 -0 -0 -112 -0 -0 -0 -0 -0 -76 -11 -21 -32
-573 -761 -0 -0 -0 -0 -0 -0 -0 -0 -0 -0 -0 -0 -0 -0 -0 -0 -0 -0 -0 -0 -0 -0 -0 -0 -0 -0 -0 -10 -3 -2 -17 -112 -0 -0 -0 -74 -52 -26 -40 -13 -18
-538 -730 -0 -0 -0 -0 -0 -0 -0 -0 -0 -0 -0 -0 -0 -0 -0 -0 -0 -69 -109 -106 -292 -224 -163 -103 -59 -23 -3 -0 -5 -2 -0 -19 -61 -190 -254 -165 -28 -14 -37 -23 -15
-555 -735 -0 -258 -0 -0 -0 -0 -0 -0 -0 -0 -0 -0 -0 -0 -0 -0 -353 -493 -414 -360 -301 -239 -175 -113 -67 -37 -12 -3 -0 -0 -0 -16 -27 -91 -181 -85 -20 -13 -11 -19 -18
-141 -45 -0 -401 -0 -121 -0 -0 -0 -0 -0 -0 -0 -0 -0 -0 -0 -0 -527 -443 -375 -319 -264 -192 -117 -75 -92 -79 -41 -23 -3 -0 -0 -9 -42 -161 -56 -74 -12 -6 -11 -13 -21
-14 -0 -0 -180 -0 -0 -33 -0 -0 -0 -0 -0 -0 -0 -0 -0 -0 -0 -486 -409 -325 -258 -204 -154 -135 -140 -153 -129 -90 -64 -41 -12 -1 -2 -16 -51 -148 -75 -16 -3 -13 -19 -18
-447 -558 -681 -0 -710 -747 -774 -695 -663 -705 -718 -516 -214 -200 -122 -592 -562 -516 -439 -422 -329 -237 -162 -125 -146 -191 -217 -204 -185 -164 -113 -58 -30 -9 -17 -30 -37 -54 -26 -4 -4 -27 -39
-197 -300 -476 -586 -640 -712 -754 -785 -692 -706 -695 -708 -699 -654 -672 -664 -617 -538 -434 -400 -368 -244 -163 -152 -154 -196 -218 -280 -329 -119 -185 -108 -43 -28 -26 -26 -11 -21 -33 -18 -15 -25 -28
-117 -237 -336 -473 -582 -655 -109 -0 -503 -767 -781 -749 -737 -722 -675 -648 -598 -505 -508 -407 -386 -256 -173 -121 -132 -184 -240 -294 -75 -325 -0 -190 -121 -67 -42 -24 -20 -22 -22 -27 -20 -22 -26
-0 -0 -278 -430 -504 -642 -690 -532 -386 -797 -823 -802 -790 -750 -772 -715 -656 -572 -580 -533 -480 -332 -208 -173 -200 -211 -250 -264 -304 -291 -223 -24 -196 -100 -64 -46 -29 -17 -24 -28 -13 -20 -23
-0 -0 -0 -354 -419 -518 -602 -491 -0 -0 -750 -862 -816 -793 -737 -719 -0 -634 -591 -571 -559 -405 -279 -189 -187 -223 -252 -273 -266 -200 -180 -131 -93 -69 -65 -53 -27 -22 -11 -15 -6 -18 -15
-0 -0 -0 -0 -269 -536 -555 -630 -463 -0 -832 -857 -846 -792 -701 -707 -125 -0 -52 -525 -556 -436 -260 -203 -183 -207 -234 -251 -189 -137 -111 -112 -66 -71 -57 -52 -43 -21 -17 -14 -11 -10 -17
-0 -0 -0 -0 -0 -466 -453 -580 -692 -634 -864 -862 -850 -761 -739 -739 -243 -0 -0 -0 -486 -380 -248 -248 -221 -223 -183 -196 -134 -92 -87 -76 -68 -0 -84 -79 -54 -26 -21 -21 -28 -16 -17
-0 -0 -0 -0 -0 -0 -416 -573 -691 -829 -844 -824 -834 -802 -721 -717 -686 -0 -0 -0 -0 -322 -264 -228 -175 -135 -118 -90 -73 -73 -66 -78 -69 -83 -76 -74 -63 -47 -30 -20 -25 -28 -17
-0 -0 -0 -0 -0 -0 -548 -637 -668 -802 -793 -811 -813 -759 -661 -639 -609 -632 -284 -234 -175 -291 -240 -204 -125 -92 -45 -37 -31 -41 -65 -76 -73 -67 -76 -74 -57 -50 -45 -20 -27 -31 -26
-0 -0 -0 -0 -0 -0 -33 -704 -730 -716 -751 -802 -786 -713 -646 -571 -556 -578 -548 -478 -386 -171 -159 -137 -80 -72 -43 -26 -38 -92 -108 -92 -84 -76 -81 -71 -79 -55 -47 -49 -25 -34 -40
-0 -0 -0 -0 -0 -0 -0 -578 -666 -547 -698 -691 -688 -648 -573 -533 -514 -546 -509 -444 -283 -145 -105 -91 -55 -31 -25 -79 -0 -0 -0 -112 -90 -87 -91 -76 -71 -58 -63 -60 -46 -48 -43
-0 -0 -0 -0 -0 -0 -570 -608 -614 -674 -691 -653 -596 -509 -494 -480 -515 -495 -426 -312 -197 -146 -85 -54 -47 -30 -30 -0 -0 -0 -0 -0 -0 -99 -70 -72 -58 -72 -58 -60 -65 -54 -55
-0 -0 -0 -0 -0 -0 -619 -644 -663 -648 -642 -572 -512 -456 -429 -419 -392 -352 -310 -217 -167 -108 -49 -50 -44 -49 -0 -0 -0 -0 -0 -0 -0 -0 -67 -62 -64 -69 -64 -58 -62 -59 -57
-0 -0 -0 -0 -0 -0 -648 -556 -500 -381 -359 -543 -480 -419 -380 -358 -274 -228 -218 -168 -125 -94 -46 -56 -2 -0 -0 -0 -0 -0 -0 -0 -0 -0 -67 -60 -70 -69 -85 -61 -55 -55 -57
-0 -0 -0 -0 -0 -41 -653 -568 -470 -413 -463 -484 -439 -357 -309 -295 -212 -178 -163 -170 -103 -107 -108 -0 -0 -0 -0 -0 -0 -0 -0 -0 -40 -18 -29 -8 -52 -22 -0 -0 -60 -63 -63
-106 -229 -258 -0 -0 -681 -586 -509 -431 -390 -432 -395 -365 -290 -323 -309 -235 -205 -180 -133 -161 -0 -0 -0 -0 -0 -0 -0 -0 -0 -0 -0 -27 -19 -14 -24 -33 -38 -76 -26 -74 -75 -78
Wind_Speed
15 17 18 17 17 18 18 19 19 20 20 20 21 21 21 20 20 19 18 17 16 16 15 15 14 14 14 15 15 15 16 17 17 18 18 17 16 15 13 12 10 9 6
15 17 17 17 17 17 18 17 17 18 18 18 19 19 19 19 19 19 18 18 17 16 16 16 16 15 15 15 15 15 16 16 17 18 18 18 18 16 14 12 11 10 7
13 14 16 17 17 17 17 17 17 16 17 17 17 17 17 17 18 18 18 18 18 17 17 17 17 16 15 15 15 16 16 17 17 18 19 19 19 18 16 14 12 10 9
10 12 14 17 16 17 17 16 16 16 15 16 15 15 15 16 17 17 17 18 17 17 17 18 18 17 16 16 15 16 17 17 18 18 18 20 20 20 19 18 14 11 10
8 9 13 15 15 16 17 16 15 14 14 14 13 13 13 14 15 16 16 16 17 17 18 18 18 17 17 16 15 14 15 17 18 18 19 19 19 20 21 21 17 12 10
5 7 12 13 13 13 13 13 12 12 12 11 11 11 11 11 12 14 15 15 16 16 17 17 18 18 18 17 15 15 14 15 17 19 20 20 19 21 23 23 16 13 11
5 5 9 12 11 10 10 10 9 9 9 9 9 8 8 9 10 12 13 13 14 15 15 16 17 18 18 17 16 15 16 15 14 17 20 21 20 23 24 20 11 13 13
6 4 7 8 8 8 7 7 7 6 6 6 6 6 6 6 7 9 10 11 12 13 14 15 16 17 18 18 18 16 16 15 17 16 18 21 21 23 23 16 11 12 14
6 3 3 4 6 5 4 4 5 5 4 4 4 4 3 3 4 6 7 9 9 11 13 13 15 17 19 20 20 20 18 15 14 17 17 19 23 22 21 16 14 14 14
6 2 1 1 3 4 4 5 6 5 4 4 3 2 1 1 2 3 4 5 7 9 10 11 14 16 17 18 19 21 20 17 14 17 18 18 21 23 19 17 17 16 17
8 6 5 4 6 6 6 6 7 7 6 6 6 4 3 2 1 0 1 3 4 7 9 10 12 14 16 17 19 19 18 17 13 15 19 19 20 22 23 19 20 18 19
11 10 8 7 8 8 8 8 8 8 8 7 7 7 6 5 3 3 2 2 4 6 7 8 10 13 15 17 19 20 19 15 13 12 17 22 21 21 23 22 20 20 19
14 13 11 11 11 12 13 12 11 11 11 10 11 9 8 8 6 5 5 4 6 8 8 9 10 11 14 16 19 20 18 15 12 13 14 20 22 21 22 23 22 23 22
20 17 15 15 15 16 15 15 15 14 13 13 13 12 11 10 9 8 7 6 7 8 8 8 9 11 13 15 17 18 18 16 13 14 15 17 18 19 22 21 21 22 23
24 18 19 19 19 18 18 18 17 17 16 15 15 14 13 12 12 10 9 8 9 9 9 8 8 9 12 14 15 16 16 15 17 18 16 18 20 20 21 20 19 19 21
25 28 29 26 23 21 21 18 18 17 16 16 17 15 14 14 14 12 11 10 11 12 13 12 11 11 12 14 15 16 14 14 17 19 20 18 19 23 20 18 20 17 21
43 42 38 31 25 21 19 18 17 17 16 16 18 15 14 14 15 14 13 12 14 15 15 13 14 13 15 15 15 16 16 15 17 19 23 21 16 26 25 19 14 12 19
44 47 44 33 26 21 19 17 17 18 15 15 14 15 14 14 14 13 13 12 12 10 12 13 13 14 15 16 17 15 13 13 14 22 25 26 23 25 23 13 11 15 19
51 50 47 35 27 22 19 18 17 15 15 13 13 14 13 11 12 12 12 11 9 11 11 10 13 14 15 16 16 16 14 12 12 20 26 28 26 23 21 15 11 16 21
48 46 39 34 29 23 20 18 18 16 14 12 11 13 11 11 11 11 10 9 8 9 9 11 13 14 17 20 21 20 18 16 14 15 23 26 27 23 22 21 17 19 22
45 45 42 35 31 22 18 15 15 15 14 13 12 11 10 10 9 9 8 6 4 6 9 12 14 16 19 20 20 19 18 17 17 16 21 23 24 22 20 17 18 19 22
45 43 39 35 27 19 15 14 16 13 15 14 12 11 9 8 8 7 5 4 3 7 10 11 12 18 19 16 17 18 20 18 18 20 20 21 23 21 19 19 20 22 21
43 43 39 31 23 17 13 9 12 10 13 12 12 11 10 7 5 5 3 3 5 7 9 9 12 14 15 15 11 15 18 16 19 19 19 21 22 23 21 19 18 20 20
46 40 37 29 19 12 9 8 8 10 11 12 10 9 6 7 4 2 2 4 5 7 9 11 13 13 11 12 13 9 14 15 16 19 21 23 22 23 23 19 19 21 21
43 41 34 22 14 9 6 4 5 9 10 8 5 3 4 5 4 2 2 4 6 8 11 12 12 8 8 12 10 12 7 10 15 19 19 21 24 25 23 22 20 20 20
30 25 17 11 8 3 2 1 2 2 3 2 2 1 1 3 4 4 4 6 8 10 12 9 8 7 8 10 9 9 8 7 10 20 18 17 25 24 21 20 19 20 20
Wind_Direction
112 115 118 109 104 96 95 99 93 90 86 82 80 79 75 73 70 66 61 55 50 44 36 25 16 8 359 354 347 337 327 318 312 311 310 312 318 318 316 317 321 330 22
105 117 118 116 109 103 104 103 96 94 88 84 81 79 74 72 67 64 60 56 52 46 39 30 22 16 7 358 350 344 336 327 317 308 304 304 303 308 313 316 316 315 338
102 110 118 119 113 110 113 112 104 101 95 90 84 80 75 72 68 64 60 55 50 44 38 34 29 23 15 3 351 340 335 329 323 314 304 298 297 297 300 302 307 309 311
93 110 119 126 122 120 119 118 113 107 102 97 91 84 77 72 68 64 58 53 49 45 40 36 32 29 22 12 3 347 334 327 321 318 313 301 292 291 292 292 293 296 296
78 109 125 131 128 130 127 124 117 111 107 101 96 89 82 76 66 63 57 51 47 44 39 35 32 29 25 20 15 9 351 332 321 316 312 308 298 290 287 285 286 288 289
48 98 127 134 132 132 133 124 119 115 110 104 98 91 85 73 64 66 61 51 45 43 39 37 30 23 19 17 13 3 358 350 332 316 309 306 301 292 287 282 283 284 282
41 76 127 138 138 140 139 135 127 123 114 111 101 92 84 74 70 63 60 54 46 43 40 36 29 20 14 12 8 359 351 345 343 328 311 301 298 291 285 287 282 283 282
349 55 121 142 147 148 152 148 146 139 130 124 114 98 91 80 72 57 52 54 47 40 39 36 28 20 14 9 4 357 348 341 331 329 319 303 296 292 286 291 286 283 281
347 34 101 141 158 169 192 200 185 166 156 151 140 126 94 82 67 54 47 47 48 36 35 35 27 18 8 1 355 350 344 342 334 322 320 311 294 296 288 288 288 283 282
328 325 218 209 206 221 238 228 223 221 209 195 198 185 174 103 71 43 39 41 43 30 29 30 25 21 14 5 358 350 343 338 336 318 312 311 299 291 296 289 284 284 280
311 307 304 266 279 264 250 254 239 229 227 220 234 234 245 280 274 308 27 36 27 18 17 22 18 19 14 6 0 358 353 345 339 325 306 303 301 292 287 289 284 283 279
304 284 276 275 264 265 266 270 256 253 250 240 246 248 260 259 250 251 279 311 346 354 2 10 12 12 12 7 360 359 356 356 345 335 313 297 297 294 285 284 283 282 282
309 304 280 272 271 270 269 279 270 263 263 253 247 251 268 270 271 270 272 295 323 334 343 352 356 3 4 1 357 355 355 0 359 344 328 305 295 293 287 281 279 277 279
304 298 299 296 286 275 277 275 267 267 260 251 246 253 264 270 274 276 276 280 306 321 327 334 343 347 351 353 351 348 348 348 350 340 329 317 304 298 285 282 279 275 276
304 303 301 301 294 282 275 280 270 263 257 252 258 254 265 268 263 265 271 276 296 313 316 323 327 337 342 344 346 343 341 338 331 325 327 319 307 300 289 279 279 275 273
299 302 304 300 293 288 277 276 268 263 260 263 262 260 259 269 268 265 270 273 294 309 318 321 325 330 334 337 337 335 332 330 325 316 312 317 315 292 291 283 278 274 270
295 300 304 303 296 287 277 272 269 269 266 262 267 263 257 256 260 268 273 285 299 308 313 319 323 329 330 331 330 330 329 323 316 311 303 309 318 279 279 283 286 277 270
296 298 301 303 300 290 278 272 276 275 267 261 256 265 260 266 267 268 266 275 289 295 309 315 322 326 327 329 329 327 326 324 315 303 297 292 294 280 281 287 285 277 269
292 293 296 302 299 293 284 279 274 280 268 257 264 273 276 273 264 256 263 272 282 298 317 317 325 326 327 327 327 326 322 315 311 304 290 284 282 284 281 275 282 278 268
292 293 298 300 300 299 294 284 281 279 277 269 265 278 277 278 273 261 270 280 294 303 315 326 327 329 328 328 328 326 324 318 312 305 291 283 276 280 279 268 271 272 266
289 289 289 295 299 300 291 282 279 270 274 274 278 279 275 283 272 259 273 269 276 298 316 326 332 330 329 332 334 333 329 320 312 305 290 282 275 276 273 270 267 273 269
283 286 291 297 301 298 290 284 294 282 286 283 286 286 285 276 272 260 264 255 292 317 325 331 334 332 334 340 339 340 335 332 315 298 289 280 269 269 270 267 265 265 268
283 284 295 301 298 293 294 293 305 305 301 289 283 290 292 283 257 245 246 290 309 323 330 336 336 336 340 346 350 346 342 339 325 305 282 270 264 261 264 268 269 268 265
273 292 294 296 293 287 276 274 277 289 291 291 290 293 286 280 263 271 272 319 325 335 337 339 340 342 356 355 355 353 347 342 329 296 267 261 256 254 254 261 266 262 263
281 287 295 298 293 273 252 252 272 301 308 303 298 292 309 313 304 312 320 337 339 340 340 341 348 7 18 4 11 7 14 357 319 283 272 262 251 245 251 253 263 259 261
298 305 311 318 311 265 238 247 294 322 336 352 100 104 35 353 336 342 357 346 347 342 342 358 13 31 38 23 33 41 45 66 151 268 274 269 236 241 249 253 258 258 258